M I D A S
Marine Information and Data Acquisition System
Tripno 959 of the Zeeleeuw from 2005-09-21 06:41:11 to 2005-09-21 13:26:59
Back to CruiseResearch ActivitiesStationsMapUnderway DataData graphs

EquipmentUnitsComment
TimeDGPSUTC
LatitudeDGPSDM.mWGS84
LongitudeDGPSDM.mWGS84
TemperatureSBE03/SBE38deg celciusITS90
ConductivitySBE21S/mITS90
SalinitySBE21 Practical Salinity Units
ChlorophylAChelsea fluorimeterg/lCalibrated in Aceton
Missing or incorrect values are displayed as -999
Sea surface data collected by the RV Zeeleeuw from 2005-09-21 06:38:15 to 2005-09-21 13:37:02
Time Latitude Longitude Temperature Conductivity Salinity ChlorophylA
2005-09-21 06:39:20 51°13.625 2°56.018 -999 0.07033 0.388882 0.027777
2005-09-21 06:40:20 51°13.655 2°55.912 -999 0.07033 0.38891 0.027777
2005-09-21 06:41:21 51°13.691 2°55.808 -999 0.07033 0.388938 0.027777
2005-09-21 06:42:20 51°13.707 2°55.74 -999 0.07033 0.388973 0.027777
2005-09-21 06:43:19 51°13.718 2°55.749 -999 0.07033 0.389022 0.027777
2005-09-21 06:44:20 51°13.726 2°55.734 -999 0.07033 0.389022 0.027777
2005-09-21 06:45:20 51°13.787 2°55.678 -999 0.07033 0.38905 0.027777
2005-09-21 06:46:20 51°13.878 2°55.6 -999 0.07033 0.389078 0.027777
2005-09-21 06:47:20 51°13.979 2°55.52 -999 0.070227 0.388531 0.027777
2005-09-21 06:48:20 51°14.085 2°55.442 -999 0.070227 0.388552 0.027777
2005-09-21 06:49:20 51°14.189 2°55.366 -999 0.070227 0.388587 0.027777
2005-09-21 06:50:20 51°14.286 2°55.24 -999 0.070227 0.388615 0.027777
2005-09-21 06:51:20 51°14.386 2°55.038 -999 0.070227 0.388636 0.027777
2005-09-21 06:52:20 51°14.498 2°54.816 -999 0.070227 0.388657 0.027777
2005-09-21 06:53:20 51°14.677 2°54.623 -999 0.070227 0.388685 0.027777
2005-09-21 06:54:20 51°14.843 2°54.397 -999 0.070227 0.38872 0.027777
2005-09-21 06:55:20 51°15.017 2°54.177 -999 0.070227 0.388741 0.027777
2005-09-21 06:56:20 51°15.189 2°53.966 -999 0.070227 0.388776 0.027777
2005-09-21 06:57:20 51°15.37 2°53.759 -999 0.070227 0.388797 0.027777
2005-09-21 06:58:20 51°15.552 2°53.553 -999 0.070227 0.388825 0.027777
2005-09-21 06:59:20 51°15.733 2°53.351 -999 0.070227 0.388846 0.027777
2005-09-21 07:00:20 51°15.922 2°53.175 -999 0.070227 0.388874 0.027777
2005-09-21 07:01:20 51°16.113 2°53.011 -999 0.070227 0.388902 0.027777
2005-09-21 07:02:20 51°16.31 2°52.864 -999 0.070227 0.38893 0.027777
2005-09-21 07:03:20 51°16.518 2°52.727 -999 0.070227 0.388958 0.027777
2005-09-21 07:04:20 51°16.724 2°52.601 -999 0.070227 0.388979 -0.005933
2005-09-21 07:05:20 51°16.931 2°52.485 -999 0.070124 0.388418 0.027777
2005-09-21 07:06:20 51°17.14 2°52.369 -999 0.070124 0.388446 -0.005933
2005-09-21 07:07:20 51°17.352 2°52.247 -999 0.070124 0.388467 -0.005933
2005-09-21 07:08:20 51°17.537 2°52.072 -999 0.070124 0.388516 -0.005933
2005-09-21 07:09:20 51°17.619 2°51.735 -999 0.070124 0.388509 -0.005933
2005-09-21 07:10:20 51°17.709 2°51.397 -999 0.070124 0.38853 0.027777
2005-09-21 07:11:20 51°17.812 2°51.061 -999 0.070124 0.388572 0.027777
2005-09-21 07:12:20 51°17.911 2°50.718 -999 0.070124 0.388586 0.027777
2005-09-21 07:13:20 51°18.011 2°50.377 -999 0.070124 0.388614 0.027777
2005-09-21 07:14:20 51°18.112 2°50.032 -999 0.070124 0.388642 -0.005933
2005-09-21 07:15:20 51°18.213 2°49.694 -999 0.070124 0.388663 -0.005933
2005-09-21 07:16:20 51°18.312 2°49.349 -999 0.070124 0.388684 -0.005933
2005-09-21 07:17:20 51°18.413 2°49.009 -999 0.070124 0.388712 -0.005933
2005-09-21 07:18:21 51°18.517 2°48.66 -999 0.070124 0.388733 -0.005933
2005-09-21 07:19:20 51°18.614 2°48.311 -999 0.070124 0.388761 -0.005933
2005-09-21 07:20:20 51°18.707 2°47.96 -999 0.070124 0.388782 -0.005933
2005-09-21 07:21:20 51°18.801 2°47.612 -999 0.070124 0.38881 -0.005933
2005-09-21 07:22:20 51°18.896 2°47.265 -999 0.070124 0.388831 -0.005933
2005-09-21 07:23:20 51°18.992 2°46.916 -999 0.070021 0.388269 -0.005933
2005-09-21 07:24:20 51°19.088 2°46.566 -999 0.070021 0.38829 -0.005933
2005-09-21 07:25:20 51°19.188 2°46.22 -999 0.070021 0.388311 -0.005933
2005-09-21 07:26:20 51°19.286 2°45.875 -999 0.070021 0.388339 -0.005933
2005-09-21 07:27:20 51°19.385 2°45.528 -999 0.070021 0.38836 -0.005933
2005-09-21 07:28:20 51°19.493 2°45.183 -999 0.070021 0.388388 -0.005933
2005-09-21 07:29:20 51°19.601 2°44.831 -999 0.070021 0.388409 -0.005933
2005-09-21 07:30:20 51°19.704 2°44.48 -999 0.070021 0.388437 -0.005933
2005-09-21 07:31:20 51°19.804 2°44.137 -999 0.070021 0.388458 -0.005933
2005-09-21 07:32:20 51°19.902 2°43.789 -999 0.070021 0.388479 -0.005933
2005-09-21 07:33:20 51°20.002 2°43.442 -999 0.070021 0.388507 -0.005933
2005-09-21 07:34:20 51°20.103 2°43.097 -999 0.070021 0.388528 -0.005933
2005-09-21 07:35:20 51°20.198 2°42.746 -999 0.070021 0.388549 -0.005933
2005-09-21 07:36:20 51°20.294 2°42.394 -999 0.070021 0.38857 -0.005933
2005-09-21 07:37:21 51°20.394 2°42.036 -999 0.070021 0.388598 -0.005933
2005-09-21 07:38:20 51°20.493 2°41.688 -999 0.070021 0.388619 -0.005933
2005-09-21 07:39:20 51°20.594 2°41.334 -999 0.070021 0.38864 -0.005933
2005-09-21 07:40:20 51°20.685 2°40.979 -999 0.070021 0.388668 -0.005933
2005-09-21 07:41:20 51°20.706 2°40.6 -999 0.070021 0.388682 -0.005933
2005-09-21 07:42:20 51°20.665 2°40.221 -999 0.069918 0.388106 -0.005933
2005-09-21 07:43:20 51°20.607 2°39.85 -999 0.069918 0.388134 -0.005933
2005-09-21 07:44:20 51°20.567 2°39.465 -999 0.069918 0.388148 -0.005933
2005-09-21 07:45:20 51°20.548 2°39.085 -999 0.069918 0.388183 -0.005933
2005-09-21 07:46:20 51°20.559 2°38.699 -999 0.069918 0.388204 -0.005933
2005-09-21 07:47:20 51°20.589 2°38.314 -999 0.069918 0.388218 -0.005933
2005-09-21 07:48:20 51°20.632 2°37.931 -999 0.069918 0.388246 -0.005933
2005-09-21 07:49:20 51°20.676 2°37.547 -999 0.069918 0.388267 -0.005933
2005-09-21 07:50:20 51°20.717 2°37.159 -999 0.069918 0.388281 -0.005933
2005-09-21 07:51:20 51°20.759 2°36.776 -999 0.069918 0.388309 -0.005933
2005-09-21 07:52:20 51°20.801 2°36.386 -999 0.069918 0.38833 -0.005933
2005-09-21 07:53:21 51°20.842 2°35.993 -999 0.069918 0.388351 -0.005933
2005-09-21 07:54:20 51°20.87 2°35.603 -999 0.069918 0.388372 -0.005933
2005-09-21 07:55:20 51°20.899 2°35.213 -999 0.069918 0.388393 -0.005933
2005-09-21 07:56:20 51°21.013 2°34.878 -999 0.069918 0.388414 -0.005933
2005-09-21 07:57:20 51°21.176 2°34.608 -999 0.069918 0.388428 -0.005933
2005-09-21 07:58:20 51°21.345 2°34.345 -999 0.069918 0.38845 -0.005933
2005-09-21 07:59:21 51°21.537 2°34.129 -999 0.069918 0.388471 -0.005933
2005-09-21 08:00:20 51°21.743 2°33.994 -999 0.069918 0.388492 -0.005933
2005-09-21 08:01:20 51°21.956 2°33.875 -999 0.069918 0.388513 -0.005933
2005-09-21 08:02:21 51°22.164 2°33.708 -999 0.069918 0.388534 -0.005933
2005-09-21 08:03:20 51°22.326 2°33.461 -999 0.069918 0.388555 -0.005933
2005-09-21 08:04:21 51°22.456 2°33.137 -999 0.069815 0.387978 -0.039642
2005-09-21 08:05:20 51°22.585 2°32.819 -999 0.069815 0.387992 -0.073352
2005-09-21 08:06:20 51°22.647 2°32.457 -999 0.069815 0.388027 -0.073352
2005-09-21 08:07:20 51°22.645 2°32.06 -999 0.069815 0.388048 -0.073352
2005-09-21 08:08:20 51°22.644 2°31.663 -999 0.069815 0.388062 -0.073352
2005-09-21 08:09:20 51°22.641 2°31.262 -999 0.069815 0.388097 -0.073352
2005-09-21 08:10:20 51°22.637 2°30.856 -999 0.069815 0.388125 -0.073352
2005-09-21 08:11:20 51°22.635 2°30.452 -999 0.069815 0.388146 -0.073352
2005-09-21 08:12:20 51°22.633 2°30.05 -999 0.069815 0.388167 -0.039642
2005-09-21 08:13:20 51°22.628 2°29.645 -999 0.069815 0.388195 -0.039642
2005-09-21 08:14:20 51°22.622 2°29.244 -999 0.069815 0.388216 -0.039642
2005-09-21 08:15:20 51°22.614 2°28.844 -999 0.069815 0.388238 -0.005933
2005-09-21 08:16:21 51°22.607 2°28.431 -999 0.069815 0.388259 -0.039642
2005-09-21 08:17:20 51°22.601 2°28.034 -999 0.069815 0.388287 -0.005933
2005-09-21 08:18:21 51°22.593 2°27.623 -999 0.069815 0.388315 -0.005933
2005-09-21 08:19:20 51°22.587 2°27.226 -999 0.069815 0.388343 -0.005933
2005-09-21 08:20:20 51°22.581 2°26.821 -999 0.069815 0.388371 0.027777
2005-09-21 08:21:20 51°22.576 2°26.415 -999 0.069815 0.388399 0.027777
2005-09-21 08:22:21 51°22.57 2°26.003 -999 0.069815 0.388427 0.027777
2005-09-21 08:23:20 51°22.568 2°25.6 -999 0.069815 0.388455 0.061486
2005-09-21 08:24:20 51°22.64 2°25.233 -999 0.069815 0.388476 0.061486
2005-09-21 08:25:20 51°22.833 2°25.139 -999 0.069713 0.387927 0.095195
2005-09-21 08:26:20 51°23.025 2°25.236 -999 0.069815 0.388533 0.095195
2005-09-21 08:27:21 51°23.219 2°25.347 -999 0.069713 0.387976 0.095195
2005-09-21 08:28:20 51°23.409 2°25.445 -999 0.069713 0.387997 0.095195
2005-09-21 08:29:20 51°23.603 2°25.544 -999 0.069713 0.388011 0.095195
2005-09-21 08:30:20 51°23.8 2°25.629 -999 0.069713 0.388039 0.095195
2005-09-21 08:31:20 51°23.993 2°25.714 -999 0.069713 0.388067 0.128905
2005-09-21 08:32:20 51°24.187 2°25.799 -999 0.069713 0.388096 0.128905
2005-09-21 08:33:20 51°24.381 2°25.875 -999 0.069713 0.388124 0.128905
2005-09-21 08:34:20 51°24.583 2°25.926 -999 0.069713 0.388145 0.162614
2005-09-21 08:35:20 51°24.78 2°25.974 -999 0.069713 0.388166 0.162614
2005-09-21 08:36:20 51°24.983 2°26.016 -999 0.069713 0.388194 0.196324
2005-09-21 08:37:20 51°25.18 2°26.052 -999 0.069713 0.388215 0.196324
2005-09-21 08:38:20 51°25.377 2°26.089 -999 0.069713 0.388236 0.196324
2005-09-21 08:39:20 51°25.573 2°26.125 -999 0.069713 0.388257 0.196324
2005-09-21 08:40:21 51°25.767 2°26.171 -999 0.069713 0.388285 0.230033
2005-09-21 08:41:20 51°25.955 2°26.222 -999 0.069713 0.388307 0.230033
2005-09-21 08:42:21 51°26.148 2°26.276 -999 0.069713 0.388328 0.230033
2005-09-21 08:43:21 51°26.337 2°26.326 -999 0.069713 0.388342 0.230033
2005-09-21 08:44:20 51°26.522 2°26.378 -999 0.069713 0.388363 0.230033
2005-09-21 08:45:20 51°26.713 2°26.429 -999 0.069713 0.388391 0.230033
2005-09-21 08:46:20 51°26.901 2°26.478 -999 0.069713 0.388412 0.263742
2005-09-21 08:47:20 51°27.092 2°26.526 -999 0.069713 0.388433 0.263742
2005-09-21 08:48:20 51°27.284 2°26.575 -999 0.06961 0.387862 0.263742
2005-09-21 08:49:20 51°27.477 2°26.626 -999 0.069713 0.388476 0.263742
2005-09-21 08:50:20 51°27.671 2°26.677 -999 0.06961 0.387904 0.263742
2005-09-21 08:51:20 51°27.865 2°26.73 -999 0.06961 0.387925 0.297452
2005-09-21 08:52:20 51°28.059 2°26.783 -999 0.06961 0.387946 0.297452
2005-09-21 08:53:20 51°28.253 2°26.846 -999 0.06961 0.387975 0.297452
2005-09-21 08:54:20 51°28.447 2°26.909 -999 0.06961 0.387996 0.297452
2005-09-21 08:55:20 51°28.643 2°26.924 -999 0.06961 0.388024 0.297452
2005-09-21 08:56:20 51°28.844 2°26.849 -999 0.06961 0.388045 0.331161
2005-09-21 08:57:20 51°28.995 2°26.613 -999 0.06961 0.38808 0.331161
2005-09-21 08:58:21 51°29.023 2°26.231 -999 0.06961 0.388066 0.331161
2005-09-21 08:59:20 51°29.054 2°25.854 -999 0.06961 0.388094 0.331161
2005-09-21 09:00:20 51°29.103 2°25.482 -999 0.06961 0.388122 0.331161
2005-09-21 09:01:20 51°29.159 2°25.121 -999 0.06961 0.388137 0.331161
2005-09-21 09:02:20 51°29.216 2°24.756 -999 0.06961 0.388165 0.331161
2005-09-21 09:03:20 51°29.279 2°24.393 -999 0.06961 0.388179 0.364871
2005-09-21 09:04:20 51°29.343 2°24.033 -999 0.06961 0.388207 0.364871
2005-09-21 09:05:19 51°29.417 2°23.679 -999 0.06961 0.388221 0.364871
2005-09-21 09:06:20 51°29.594 2°23.563 -999 0.06961 0.388242 0.364871
2005-09-21 09:07:20 51°29.758 2°23.705 -999 0.06961 0.388263 0.364871
2005-09-21 09:08:20 51°29.903 2°23.892 -999 0.06961 0.388285 0.364871
2005-09-21 09:09:20 51°30.045 2°24.083 -999 0.06961 0.388306 0.364871
2005-09-21 09:10:20 51°30.185 2°24.274 -999 0.06961 0.38832 0.39858
2005-09-21 09:11:20 51°30.338 2°24.438 -999 0.06961 0.388341 0.39858
2005-09-21 09:12:20 51°30.493 2°24.6 -999 0.06961 0.388355 0.39858
2005-09-21 09:13:21 51°30.65 2°24.762 -999 0.06961 0.388376 0.39858
2005-09-21 09:14:21 51°30.802 2°24.923 -999 0.06961 0.38839 0.39858
2005-09-21 09:15:20 51°30.95 2°25.082 -999 0.06961 0.388412 0.39858
2005-09-21 09:16:20 51°31.103 2°25.244 -999 0.069507 0.387832 0.39858
2005-09-21 09:17:20 51°31.254 2°25.402 -999 0.069507 0.387853 0.39858
2005-09-21 09:18:19 51°31.409 2°25.554 -999 0.069507 0.387868 0.39858
2005-09-21 09:19:19 51°31.565 2°25.709 -999 0.069507 0.387889 0.39858
2005-09-21 09:20:20 51°31.724 2°25.867 -999 0.069507 0.387903 0.39858
2005-09-21 09:21:19 51°31.879 2°26.025 -999 0.069507 0.387924 0.39858
2005-09-21 09:22:21 51°32.04 2°26.183 -999 0.069507 0.387938 0.39858
2005-09-21 09:23:20 51°32.195 2°26.335 -999 0.069507 0.387959 0.432289
2005-09-21 09:24:20 51°32.356 2°26.49 -999 0.069507 0.387973 0.432289
2005-09-21 09:25:20 51°32.513 2°26.643 -999 0.069507 0.387987 0.39858
2005-09-21 09:26:21 51°32.673 2°26.799 -999 0.069507 0.388009 0.39858
2005-09-21 09:27:20 51°32.831 2°26.954 -999 0.069507 0.388023 0.432289
2005-09-21 09:28:20 51°32.99 2°27.11 -999 0.069507 0.388044 0.39858
2005-09-21 09:29:20 51°33.147 2°27.271 -999 0.069507 0.388058 0.432289
2005-09-21 09:30:21 51°33.304 2°27.436 -999 0.069507 0.388072 0.39858
2005-09-21 09:31:21 51°33.461 2°27.598 -999 0.069507 0.388086 0.432289
2005-09-21 09:32:20 51°33.618 2°27.755 -999 0.069507 0.388107 0.432289
2005-09-21 09:33:20 51°33.779 2°27.906 -999 0.069507 0.388121 0.432289
2005-09-21 09:34:21 51°33.941 2°28.057 -999 0.069507 0.388143 0.432289
2005-09-21 09:35:20 51°34.102 2°28.209 -999 0.069507 0.388157 0.432289
2005-09-21 09:36:20 51°34.262 2°28.363 -999 0.069507 0.388171 0.432289
2005-09-21 09:37:20 51°34.421 2°28.516 -999 0.069507 0.388185 0.432289
2005-09-21 09:38:21 51°34.584 2°28.671 -999 0.069507 0.388199 0.432289
2005-09-21 09:39:19 51°34.739 2°28.824 -999 0.069507 0.388213 0.432289
2005-09-21 09:40:21 51°34.897 2°28.994 -999 0.069507 0.388234 0.432289
2005-09-21 09:41:19 51°35.048 2°29.157 -999 0.069404 0.387662 0.432289
2005-09-21 09:42:19 51°35.202 2°29.319 -999 0.069404 0.387676 0.432289
2005-09-21 09:43:20 51°35.356 2°29.477 -999 0.069404 0.38769 0.39858
2005-09-21 09:44:20 51°35.508 2°29.635 -999 0.069404 0.387697 0.432289
2005-09-21 09:45:20 51°35.663 2°29.798 -999 0.069404 0.387718 0.432289
2005-09-21 09:46:20 51°35.814 2°29.958 -999 0.069404 0.387732 0.432289
2005-09-21 09:47:21 51°35.969 2°30.122 -999 0.069404 0.387746 0.432289
2005-09-21 09:48:20 51°36.116 2°30.279 -999 0.069404 0.38776 0.39858
2005-09-21 09:49:20 51°36.267 2°30.438 -999 0.069404 0.387775 0.39858
2005-09-21 09:50:20 51°36.418 2°30.6 -999 0.069404 0.387789 0.39858
2005-09-21 09:51:20 51°36.569 2°30.763 -999 0.069404 0.387803 0.39858
2005-09-21 09:52:20 51°36.72 2°30.927 -999 0.069404 0.387817 0.39858
2005-09-21 09:53:20 51°36.871 2°31.083 -999 0.069404 0.387831 0.39858
2005-09-21 09:54:20 51°37.028 2°31.234 -999 0.069404 0.387838 0.39858
2005-09-21 09:55:21 51°37.186 2°31.385 -999 0.069404 0.387852 0.39858
2005-09-21 09:56:20 51°37.338 2°31.533 -999 0.069404 0.387866 0.39858
2005-09-21 09:57:20 51°37.497 2°31.687 -999 0.069404 0.38788 0.39858
2005-09-21 09:58:21 51°37.655 2°31.84 -999 0.069404 0.387888 0.39858
2005-09-21 09:59:20 51°37.811 2°31.988 -999 0.069404 0.387902 0.39858
2005-09-21 10:00:20 51°37.965 2°32.141 -999 0.069404 0.387909 0.39858
2005-09-21 10:01:21 51°38.125 2°32.297 -999 0.069404 0.387923 0.39858
2005-09-21 10:02:20 51°38.281 2°32.447 -999 0.069404 0.387937 0.39858
2005-09-21 10:03:21 51°38.441 2°32.604 -999 0.069404 0.387951 0.39858
2005-09-21 10:04:20 51°38.597 2°32.757 -999 0.069404 0.387958 0.364871
2005-09-21 10:05:20 51°38.756 2°32.915 -999 0.069404 0.387972 0.39858
2005-09-21 10:06:21 51°38.918 2°33.074 -999 0.069404 0.387986 0.364871
2005-09-21 10:07:20 51°39.078 2°33.229 -999 0.069404 0.387994 0.364871
2005-09-21 10:08:20 51°39.234 2°33.397 -999 0.069404 0.388008 0.364871
2005-09-21 10:09:21 51°39.393 2°33.564 -999 0.069404 0.388022 0.364871
2005-09-21 10:10:21 51°39.555 2°33.722 -999 0.069404 0.388029 0.364871
2005-09-21 10:11:20 51°39.716 2°33.878 -999 0.069404 0.388036 0.364871
2005-09-21 10:12:20 51°39.879 2°34.034 -999 0.069404 0.38805 0.364871
2005-09-21 10:13:20 51°40.042 2°34.191 -999 0.069404 0.388064 0.364871
2005-09-21 10:14:21 51°40.209 2°34.35 -999 0.069301 0.387484 0.364871
2005-09-21 10:15:20 51°40.365 2°34.509 -999 0.069301 0.387491 0.364871
2005-09-21 10:16:20 51°40.524 2°34.676 -999 0.069301 0.387498 0.364871
2005-09-21 10:17:20 51°40.683 2°34.84 -999 0.069301 0.387512 0.364871
2005-09-21 10:18:20 51°40.842 2°35.003 -999 0.069301 0.387519 0.364871
2005-09-21 10:19:20 51°41.001 2°35.169 -999 0.069301 0.387533 0.364871
2005-09-21 10:20:21 51°41.139 2°35.381 -999 0.069301 0.38754 0.364871
2005-09-21 10:21:20 51°41.195 2°35.67 -999 0.069301 0.38754 0.364871
2005-09-21 10:22:21 51°41.184 2°35.988 -999 0.069301 0.387547 0.364871
2005-09-21 10:23:20 51°41.065 2°36.261 -999 0.069301 0.387561 0.364871
2005-09-21 10:24:20 51°40.95 2°36.54 -999 0.069301 0.387583 0.364871
2005-09-21 10:25:21 51°40.84 2°36.839 -999 0.069301 0.387583 0.364871
2005-09-21 10:26:21 51°40.73 2°37.138 -999 0.069301 0.387597 0.364871
2005-09-21 10:27:20 51°40.622 2°37.432 -999 0.069301 0.387604 0.364871
2005-09-21 10:28:21 51°40.511 2°37.737 -999 0.069301 0.387625 0.331161
2005-09-21 10:29:20 51°40.406 2°38.036 -999 0.069301 0.387632 0.364871
2005-09-21 10:30:20 51°40.301 2°38.339 -999 0.069301 0.387646 0.364871
2005-09-21 10:31:20 51°40.195 2°38.64 -999 0.069301 0.387653 0.364871
2005-09-21 10:32:20 51°40.09 2°38.939 -999 0.069301 0.38766 0.331161
2005-09-21 10:33:20 51°39.988 2°39.238 -999 0.069301 0.38766 0.364871
2005-09-21 10:34:20 51°39.886 2°39.535 -999 0.069301 0.387667 0.364871
2005-09-21 10:35:20 51°39.784 2°39.834 -999 0.069301 0.387667 0.364871
2005-09-21 10:36:20 51°39.681 2°40.126 -999 0.069301 0.387667 0.364871
2005-09-21 10:37:20 51°39.583 2°40.428 -999 0.069301 0.38766 0.331161
2005-09-21 10:38:21 51°39.48 2°40.733 -999 0.069301 0.38766 0.331161
2005-09-21 10:39:20 51°39.371 2°41.023 -999 0.069301 0.38766 0.364871
2005-09-21 10:40:20 51°39.231 2°41.287 -999 0.069301 0.38766 0.364871
2005-09-21 10:41:20 51°39.091 2°41.541 -999 0.069301 0.387653 0.331161
2005-09-21 10:42:21 51°38.911 2°41.734 -999 0.069301 0.387653 0.364871
2005-09-21 10:43:21 51°38.672 2°41.767 -999 0.069301 0.387646 0.364871
2005-09-21 10:44:21 51°38.431 2°41.796 -999 0.069301 0.387639 0.364871
2005-09-21 10:45:20 51°38.191 2°41.824 -999 0.069301 0.387632 0.364871
2005-09-21 10:46:20 51°37.949 2°41.853 -999 0.069301 0.387632 0.364871
2005-09-21 10:47:20 51°37.704 2°41.877 -999 0.069301 0.387618 0.364871
2005-09-21 10:48:20 51°37.472 2°41.783 -999 0.069301 0.387625 0.364871
2005-09-21 10:49:20 51°37.359 2°41.435 -999 0.069301 0.387611 0.364871
2005-09-21 10:50:20 51°37.327 2°41.034 -999 0.069301 0.387604 0.364871
2005-09-21 10:51:20 51°37.332 2°40.645 -999 0.069301 0.387597 0.364871
2005-09-21 10:52:21 51°37.342 2°40.251 -999 0.069301 0.387597 0.364871
2005-09-21 10:53:20 51°37.351 2°39.874 -999 0.069301 0.38759 0.364871
2005-09-21 10:54:20 51°37.358 2°39.489 -999 0.069301 0.387583 0.364871
2005-09-21 10:55:21 51°37.365 2°39.103 -999 0.069301 0.387583 0.364871
2005-09-21 10:56:20 51°37.371 2°38.724 -999 0.069301 0.387576 0.364871
2005-09-21 10:57:20 51°37.383 2°38.346 -999 0.069301 0.387569 0.364871
2005-09-21 10:58:21 51°37.4 2°37.962 -999 0.069404 0.388156 0.364871
2005-09-21 10:59:20 51°37.417 2°37.584 -999 0.069404 0.388156 0.364871
2005-09-21 11:00:20 51°37.435 2°37.206 -999 0.069301 0.387554 0.364871
2005-09-21 11:01:21 51°37.452 2°36.828 -999 0.069301 0.387547 0.364871
2005-09-21 11:02:20 51°37.468 2°36.457 -999 0.069404 0.388128 0.364871
2005-09-21 11:03:21 51°37.484 2°36.067 -999 0.069404 0.388128 0.364871
2005-09-21 11:04:19 51°37.498 2°35.697 -999 0.069404 0.388114 0.364871
2005-09-21 11:05:21 51°37.512 2°35.307 -999 0.069404 0.388107 0.364871
2005-09-21 11:06:21 51°37.521 2°34.92 -999 0.069404 0.3881 0.364871
2005-09-21 11:07:21 51°37.531 2°34.53 -999 0.069404 0.388093 0.364871
2005-09-21 11:08:20 51°37.483 2°34.144 -999 0.069404 0.388085 0.39858
2005-09-21 11:09:21 51°37.346 2°33.828 -999 0.069404 0.388085 0.39858
2005-09-21 11:10:21 51°37.133 2°33.623 -999 0.069404 0.388071 0.39858
2005-09-21 11:11:21 51°36.919 2°33.42 -999 0.069404 0.38805 0.364871
2005-09-21 11:12:20 51°36.709 2°33.22 -999 0.069404 0.388064 0.39858
2005-09-21 11:13:21 51°36.467 2°33.131 -999 0.069404 0.388036 0.364871
2005-09-21 11:14:20 51°36.228 2°33.058 -999 0.069404 0.388022 0.39858
2005-09-21 11:15:20 51°35.988 2°32.982 -999 0.069404 0.388015 0.39858
2005-09-21 11:16:21 51°35.745 2°32.905 -999 0.069404 0.388008 0.39858
2005-09-21 11:17:20 51°35.508 2°32.828 -999 0.069404 0.387994 0.39858
2005-09-21 11:18:20 51°35.268 2°32.751 -999 0.069404 0.387986 0.39858
2005-09-21 11:19:20 51°35.029 2°32.672 -999 0.069404 0.387972 0.39858
2005-09-21 11:20:21 51°34.786 2°32.595 -999 0.069404 0.387958 0.39858
2005-09-21 11:21:20 51°34.55 2°32.517 -999 0.069404 0.387951 0.39858
2005-09-21 11:22:19 51°34.316 2°32.44 -999 0.069404 0.38793 0.39858
2005-09-21 11:23:21 51°34.072 2°32.357 -999 0.069404 0.387916 0.39858
2005-09-21 11:24:19 51°33.84 2°32.279 -999 0.069404 0.387909 0.39858
2005-09-21 11:25:21 51°33.596 2°32.202 -999 0.069404 0.387895 0.39858
2005-09-21 11:26:19 51°33.365 2°32.127 -999 0.069404 0.387888 0.432289
2005-09-21 11:27:20 51°33.124 2°32.05 -999 0.069404 0.387873 0.39858
2005-09-21 11:28:19 51°32.886 2°31.977 -999 0.069507 0.388447 0.432289
2005-09-21 11:29:19 51°32.643 2°31.935 -999 0.069507 0.38844 0.39858
2005-09-21 11:30:20 51°32.393 2°31.927 -999 0.069507 0.388425 0.432289
2005-09-21 11:31:19 51°32.15 2°31.922 -999 0.069507 0.388411 0.432289
2005-09-21 11:32:19 51°31.908 2°31.916 -999 0.069507 0.388397 0.432289
2005-09-21 11:33:20 51°31.666 2°31.959 -999 0.069507 0.388376 0.432289
2005-09-21 11:34:20 51°31.428 2°32.012 -999 0.069507 0.388369 0.432289
2005-09-21 11:35:19 51°31.2 2°32.079 -999 0.069507 0.388362 0.432289
2005-09-21 11:36:21 51°30.981 2°32.232 -999 0.069507 0.388341 0.432289
2005-09-21 11:37:20 51°30.778 2°32.394 -999 0.069507 0.388319 0.432289
2005-09-21 11:38:19 51°30.575 2°32.558 -999 0.069507 0.388312 0.465999
2005-09-21 11:39:21 51°30.363 2°32.725 -999 0.069507 0.388291 0.432289
2005-09-21 11:40:19 51°30.163 2°32.884 -999 0.069507 0.388277 0.465999
2005-09-21 11:41:19 51°29.966 2°33.062 -999 0.069507 0.388263 0.465999
2005-09-21 11:42:20 51°29.784 2°33.283 -999 0.069507 0.388242 0.465999
2005-09-21 11:43:19 51°29.695 2°33.572 -999 0.069507 0.388227 0.465999
2005-09-21 11:44:20 51°29.661 2°33.897 -999 0.069507 0.388206 0.465999
2005-09-21 11:45:19 51°29.624 2°34.22 -999 0.069507 0.388192 0.465999
2005-09-21 11:46:19 51°29.592 2°34.548 -999 0.069507 0.388178 0.465999
2005-09-21 11:47:19 51°29.561 2°34.878 -999 0.069507 0.38815 0.465999
2005-09-21 11:48:19 51°29.53 2°35.212 -999 0.069507 0.388129 0.465999
2005-09-21 11:49:21 51°29.495 2°35.557 -999 0.069507 0.388114 0.465999
2005-09-21 11:50:19 51°29.467 2°35.886 -999 0.06961 0.388687 0.465999
2005-09-21 11:51:19 51°29.437 2°36.222 -999 0.06961 0.388666 0.465999
2005-09-21 11:52:21 51°29.404 2°36.565 -999 0.06961 0.388631 0.465999
2005-09-21 11:53:20 51°29.319 2°36.878 -999 0.06961 0.388616 0.465999
2005-09-21 11:54:21 51°29.228 2°37.197 -999 0.06961 0.388595 0.465999
2005-09-21 11:55:20 51°29.135 2°37.507 -999 0.06961 0.388574 0.499708
2005-09-21 11:56:20 51°29.032 2°37.812 -999 0.06961 0.388539 0.499708
2005-09-21 11:57:20 51°28.822 2°37.948 -999 0.06961 0.388517 0.499708
2005-09-21 11:58:20 51°28.595 2°38.052 -999 0.06961 0.38851 0.499708
2005-09-21 11:59:21 51°28.372 2°38.178 -999 0.06961 0.388482 0.499708
2005-09-21 12:00:20 51°28.159 2°38.32 -999 0.06961 0.388454 0.499708
2005-09-21 12:01:21 51°27.939 2°38.453 -999 0.06961 0.388433 0.499708
2005-09-21 12:02:19 51°27.725 2°38.58 -999 0.06961 0.388412 0.499708
2005-09-21 12:03:19 51°27.505 2°38.712 -999 0.06961 0.38839 0.499708
2005-09-21 12:04:19 51°27.281 2°38.83 -999 0.06961 0.388362 0.499708
2005-09-21 12:05:19 51°27.056 2°38.942 -999 0.06961 0.388348 0.499708
2005-09-21 12:06:19 51°26.832 2°39.055 -999 0.06961 0.388327 0.499708
2005-09-21 12:07:19 51°26.607 2°39.171 -999 0.06961 0.388306 0.499708
2005-09-21 12:08:21 51°26.379 2°39.288 -999 0.06961 0.388278 0.499708
2005-09-21 12:09:20 51°26.161 2°39.401 -999 0.069713 0.38885 0.499708
2005-09-21 12:10:21 51°25.942 2°39.506 -999 0.069713 0.388828 0.499708
2005-09-21 12:11:19 51°25.732 2°39.606 -999 0.069713 0.3888 0.533418
2005-09-21 12:12:21 51°25.511 2°39.712 -999 0.069713 0.388779 0.533418
2005-09-21 12:13:21 51°25.295 2°39.82 -999 0.069713 0.388758 0.533418
2005-09-21 12:14:20 51°25.08 2°39.93 -999 0.069713 0.38873 0.533418
2005-09-21 12:15:21 51°24.861 2°40.041 -999 0.069713 0.388701 0.533418
2005-09-21 12:16:19 51°24.645 2°40.137 -999 0.069713 0.38868 0.533418
2005-09-21 12:17:19 51°24.423 2°40.224 -999 0.069713 0.388659 0.533418
2005-09-21 12:18:20 51°24.19 2°40.282 -999 0.069713 0.388631 0.533418
2005-09-21 12:19:20 51°23.962 2°40.343 -999 0.069713 0.388603 0.533418
2005-09-21 12:20:19 51°23.737 2°40.408 -999 0.069713 0.388581 0.533418
2005-09-21 12:21:21 51°23.503 2°40.472 -999 0.069713 0.388553 0.533418
2005-09-21 12:22:21 51°23.273 2°40.511 -999 0.069713 0.388532 0.533418
2005-09-21 12:23:20 51°23.046 2°40.553 -999 0.069713 0.388504 0.533418
2005-09-21 12:24:21 51°22.818 2°40.575 -999 0.069713 0.388476 0.533418
2005-09-21 12:25:19 51°22.598 2°40.588 -999 0.069713 0.388455 0.533418
2005-09-21 12:26:21 51°22.365 2°40.589 -999 0.069713 0.388433 0.533418
2005-09-21 12:27:20 51°22.145 2°40.655 -999 0.069713 0.388398 0.533418
2005-09-21 12:28:19 51°21.927 2°40.73 -999 0.069713 0.38837 0.533418
2005-09-21 12:29:19 51°21.709 2°40.829 -999 0.069713 0.388349 0.567127
2005-09-21 12:30:19 51°21.499 2°40.963 -999 0.069713 0.388321 0.533418
2005-09-21 12:31:21 51°21.284 2°41.105 -999 0.069713 0.3883 0.533418
2005-09-21 12:32:19 51°21.087 2°41.264 -999 0.069815 0.388864 0.567127
2005-09-21 12:33:19 51°20.898 2°41.471 -999 0.069815 0.388836 0.567127
2005-09-21 12:34:21 51°20.72 2°41.711 -999 0.069815 0.388814 0.567127
2005-09-21 12:35:19 51°20.615 2°42.021 -999 0.069815 0.388772 0.567127
2005-09-21 12:36:20 51°20.503 2°42.352 -999 0.069815 0.388751 0.567127
2005-09-21 12:37:19 51°20.39 2°42.666 -999 0.069815 0.38873 0.567127
2005-09-21 12:38:20 51°20.277 2°42.989 -999 0.069815 0.388702 0.567127
2005-09-21 12:39:21 51°20.166 2°43.303 -999 0.069815 0.388666 0.567127
2005-09-21 12:40:20 51°20.054 2°43.609 -999 0.069815 0.388638 0.567127
2005-09-21 12:41:19 51°19.951 2°43.916 -999 0.069815 0.38861 0.567127
2005-09-21 12:42:21 51°19.848 2°44.241 -999 0.069815 0.388575 0.567127
2005-09-21 12:43:20 51°19.748 2°44.559 -999 0.069815 0.388547 0.567127
2005-09-21 12:44:19 51°19.664 2°44.886 -999 0.069815 0.388512 0.567127
2005-09-21 12:45:21 51°19.57 2°45.227 -999 0.069815 0.388476 0.567127
2005-09-21 12:46:21 51°19.473 2°45.566 -999 0.069815 0.388448 0.600836
2005-09-21 12:47:20 51°19.377 2°45.904 -999 0.069815 0.38842 0.567127
2005-09-21 12:48:21 51°19.28 2°46.24 -999 0.069815 0.388385 0.567127
2005-09-21 12:49:20 51°19.185 2°46.563 -999 0.069815 0.388343 0.600836
2005-09-21 12:50:21 51°19.086 2°46.897 -999 0.069815 0.388315 0.600836
2005-09-21 12:51:20 51°18.99 2°47.223 -999 0.069815 0.38828 0.567127
2005-09-21 12:52:21 51°18.889 2°47.552 -999 0.069815 0.388245 0.600836
2005-09-21 12:53:20 51°18.795 2°47.879 -999 0.069918 0.388808 0.600836
2005-09-21 12:54:19 51°18.701 2°48.205 -999 0.069918 0.388766 0.600836
2005-09-21 12:55:21 51°18.602 2°48.547 -999 0.069918 0.388737 0.600836
2005-09-21 12:56:20 51°18.509 2°48.882 -999 0.069918 0.388702 0.600836
2005-09-21 12:57:21 51°18.412 2°49.225 -999 0.069918 0.388667 0.600836
2005-09-21 12:58:21 51°18.317 2°49.565 -999 0.069918 0.388632 0.600836
2005-09-21 12:59:19 51°18.224 2°49.894 -999 0.069918 0.388597 0.600836
2005-09-21 13:00:20 51°18.125 2°50.232 -999 0.069918 0.388562 0.600836
2005-09-21 13:01:21 51°18.029 2°50.567 -999 0.069918 0.388527 0.600836
2005-09-21 13:02:21 51°17.935 2°50.9 -999 0.069918 0.388492 0.600836
2005-09-21 13:03:21 51°17.833 2°51.227 -999 0.069918 0.388457 0.600836
2005-09-21 13:04:19 51°17.724 2°51.534 -999 0.069918 0.388421 0.634546
2005-09-21 13:05:20 51°17.592 2°51.842 -999 0.069918 0.388386 0.600836
2005-09-21 13:06:21 51°17.421 2°52.073 -999 0.069918 0.388351 0.634546
2005-09-21 13:07:20 51°17.239 2°52.277 -999 0.069918 0.388323 0.634546
2005-09-21 13:08:21 51°17.056 2°52.489 -999 0.069918 0.388274 0.600836
2005-09-21 13:09:20 51°16.865 2°52.656 -999 0.069918 0.388239 0.634546
2005-09-21 13:10:21 51°16.662 2°52.81 -999 0.069918 0.388211 0.634546
2005-09-21 13:11:20 51°16.461 2°52.945 -999 0.069918 0.388176 0.634546
2005-09-21 13:12:19 51°16.262 2°53.074 -999 0.069918 0.388134 0.634546
2005-09-21 13:13:21 51°16.055 2°53.21 -999 0.069918 0.388099 0.634546
2005-09-21 13:14:21 51°15.853 2°53.345 -999 0.070021 0.388647 0.634546
2005-09-21 13:15:19 51°15.654 2°53.459 -999 0.070021 0.388619 0.634546
2005-09-21 13:16:21 51°15.452 2°53.577 -999 0.070021 0.388584 0.634546
2005-09-21 13:17:19 51°15.319 2°53.68 -999 0.070021 0.388542 0.634546
2005-09-21 13:18:21 51°15.12 2°53.79 -999 0.070021 0.388521 0.634546
2005-09-21 13:19:19 51°14.943 2°53.957 -999 0.070021 0.388486 0.634546
2005-09-21 13:20:19 51°14.788 2°54.206 -999 0.070021 0.388444 0.634546
2005-09-21 13:21:21 51°14.637 2°54.479 -999 0.070021 0.388409 0.634546
2005-09-21 13:22:19 51°14.501 2°54.749 -999 0.070021 0.388374 0.634546
2005-09-21 13:23:21 51°14.369 2°55.053 -999 0.070021 0.388332 0.634546
2005-09-21 13:24:20 51°14.265 2°55.238 -999 0.070021 0.38829 0.634546
2005-09-21 13:25:21 51°14.165 2°55.401 -999 0.070021 0.388262 0.634546
2005-09-21 13:26:20 51°14.04 2°55.506 -999 0.070021 0.388227 0.634546
2005-09-21 13:27:20 51°13.919 2°55.577 -999 0.070021 0.388185 0.668255
2005-09-21 13:28:22 51°13.812 2°55.645 -999 0.070021 0.388143 0.634546
2005-09-21 13:29:22 51°13.731 2°55.738 -999 0.070021 0.388108 0.634546
2005-09-21 13:30:22 51°13.678 2°55.844 -999 0.070124 0.388649 0.634546
2005-09-21 13:31:22 51°13.641 2°55.941 -999 0.070124 0.388621 0.668255
2005-09-21 13:32:22 51°13.617 2°56.023 -999 0.070124 0.388579 0.668255
2005-09-21 13:33:22 51°13.604 2°56.082 -999 0.070124 0.388544 0.668255
2005-09-21 13:34:22 51°13.599 2°56.094 -999 0.070124 0.388509 0.668255
2005-09-21 13:35:22 51°13.599 2°56.099 -999 0.070124 0.388467 0.668255
2005-09-21 13:36:22 51°13.599 2°56.099 -999 0.070124 0.388425 0.668255